Simultaneous Nadir Overpasses (SNOs) Predictions

Prediction of SNOs between GOES-14 and AQUA Satellite Orbit:

Table of predicted SNOs for the next 14.0 days since TLE Epoch: 11/4/2023
Index Date Time (GOES-14) GOES-14 Lat,Lon AQUA Lat,Lon Distance(km) Time Diff (sec)
1 11/05/2023 08:57:04 0.07,-108.62 -0.71,-104.96 416.62 80
2 11/05/2023 21:15:07 -0.04,-108.57 -0.31,-109.98 159.82 80
3 11/07/2023 21:02:51 -0.04,-108.57 0.43,-106.33 254.89 80
4 11/08/2023 09:20:43 0.02,-108.62 0.61,-111.31 305.55 80
5 11/10/2023 09:08:28 0.03,-108.63 -0.19,-107.66 109.79 80
6 11/10/2023 21:26:28 -0.00,-108.57 -0.91,-112.67 466.28 80
7 11/12/2023 21:11:31 -0.01,-108.57 -0.09,-109.02 50.66 80
8 11/14/2023 20:59:12 -0.02,-108.57 0.65,-105.36 364.78 80
9 11/15/2023 09:17:05 0.00,-108.62 0.35,-110.34 195.68 80
10 11/17/2023 09:04:45 0.01,-108.61 -0.40,-106.68 219.48 80
11 11/17/2023 21:22:46 0.01,-108.55 -0.64,-111.69 356.49 80
